SCP
0 0 0 0 0 0 -0 0 0 0 0 0 0 0 0 0 0 0 0 0 0 0 0 0 0 0 0 0 0 0 0 0 0 0 0 0 0 0 0 0 0 0 0 0
0 0 0 0 0 0 -0 0 0 0 0 0 0 0 0 0 0 0 0 0 0 0 0 0 0 0 0 0 0 0 0 0 0 0 0 0 0 0 0 0 0 0 0 0
0 0 0 0 0 0 0 0 0 0 0 0 0 0 0 0 0 0 0 0 0 0 0 0 0 0 0 0 0 0 0 0 0 0 0 0 0 0 0 0 0 0 0 0
0 0 0 0 0 0 0 0 0 0 0 0 0 0 0 0 0 0 0 0 0 0 0 0 0 0 0 0 0 0 0 0 0 0 0 0 0 0 0 0 0 0 0 0
0 0 0 0 0 0 0 0 0 0 0 0 0 0 0 0 0 0 0 0 0 0 0 0 0 0 0 0 0 0 0 0 0 0 0 0 0 0 0 0 0 0 0 0
0 0 0 0 0 0 0 0 0 0 0 0 0 0 0 0 0 0 0 0 0 0 0 0 0 0 0 0 0 0 0 0 0 0 0 0 0 0 0 0 0 0 0 0
0 0 0 0 0 0 0 0 0 0 0 0 0 0 0 0 0 0 0 0 0 0 0 0 0 0 0 0 0 0 0 0 0 0 0 0 0 0 0 0 0 0 0 0
0 0 0 0 0 0 0 0 0 0 0 0 0 0 0 0 0 0 0 0 0 0 0 0 0 0 0 0 0 0 0 0 0 0 0 0 0 0 0 0 0 0 0 0
0 0 0 0 0 0 0 0 0 0 0 0 0 0 0 0 0 0 0 0 0 0 0 0 0 0 0 0 0 0 0 0 0 0 0 0 0 0 0 0 0 0 0 0
0 0 0 0 0 0 0 0 0 0 0 0 0 0 0 0 0 0 0 0 0 0 0 0 0 0 0 0 0 0 0 0 0 0 0 0 0 0 0 0 0 0 0 0
0 0 0 0 0 0 0 0 0 0 0 0 0 0 0 0 0 0 0 0 0 0 0 0 0 0 0 0 0 0 0 0 0 0 0 0 0 0 0 0 0 0 0 0
0 0 0 0 0 0 0 0 0 0 0 0 0 0 0 0 0 0 0 0 0 0 0 0 0 0 0 0 0 0 0 0 0 0 0 0 0 0 0 0 0 0 0 0
0 0 0 0 0 0 0 0 0 0 0 0 0 0 0 0 0 0 0 0 0 0 0 0 0 0 0 0 0 0 0 0 0 0 0 0 0 0 0 0 0 0 0 0
0 0 0 0 0 0 0 0 0 0 0 0 0 0 0 0 0 0 0 0 0 0 0 0 0 0 0 0 0 0 0 0 0 0 0 0 0 0 0 0 0 0 0 0
0 0 0 0 0 0 0 0 0 0 0 0 0 0 0 0 0 0 0 0 0 0 0 0 0 0 0 0 0 0 0 0 0 0 0 0 0 0 0 0 0 0 0 0
0 0 0 0 0 0 0 0 0 0 0 0 0 0 0 0 0 0 0 0 0 0 0 0 0 0 0 0 0 0 0 0 0 0 0 0 0 0 0 0 0 0 0 0
0 0 0 0 0 0 0 0 0 0 0 0 0 0 0 0 0 0 0 0 0 0 0 0 0 0 0 0 0 0 0 0 0 0 0 0 0 0 0 0 0 0 0 0
0 0 0 0 0 0 0 0 0 0 0 0 0 0 0 0 0 0 0 0 0 0 0 0 0 0 0 0 0 0 0 0 0 0 0 0 0 0 0 0 0 0 0 0
0 0 0 0 0 0 0 0 0 0 0 0 0 0 0 0 0 0 0 0 0 0 0 0 0 0 0 0 0 0 0 0 0 0 0 0 0 0 0 0 0 0 0 0
0 0 0 0 0 0 0 0 0 0 0 0 0 0 0 0 0 0 0 0 0 0 0 0 0 0 0 0 0 0 0 0 0 0 0 0 0 0 0 0 0 0 0 0
0 0 0 0 0 0 0 0 0 0 0 0 0 0 0 0 0 0 0 0 0 0 0 0 0 0 0 0 0 0 0 0 0 0 0 0 0 0 0 0 0 0 0 0
0 0 0 0 0 0 0 0 0 0 0 0 0 0 0 0 0 0 0 0 0 0 0 0 0 0 0 0 0 0 0 0 0 0 0 0 0 0 0 0 0 0 0 0
0 0 0 0 0 0 0 0 0 0 0 0 0 0 0 0 0 0 0 0 0 0 0 0 0 0 0 0 0 0 0 0 0 0 0 0 0 0 0 0 0 0 0 0
0 0 0 0 0 0 0 0 0 0 0 0 0 0 0 0 0 0 0 0 0 0 0 0 0 0 0 0 0 0 0 0 0 0 0 0 0 0 0 0 0 0 0 0
0 0 0 0 0 0 0 0 0 0 0 0 0 0 0 0 0 0 0 0 0 0 0 0 0 0 0 0 0 0 0 0 0 0 0 0 0 0 0 0 0 0 0 0
0 0 0 0 0 0 0 0 0 0 0 0 0 0 0 0 0 0 0 0 0 0 0 0 0 0 0 0 0 0 0 0 0 0 0 0 0 0 0 -0 0 0 0 0
0 0 0 0 0 0 0 0 0 0 0 0 0 0 0 0 0 0 0 0 0 0 0 0 0 0 0 0 0 0 0 0 0 0 0 0 0 0 0 -0 0 0 0 0
Wind_Speed
4 4 4 4 3 4 4 4 4 3 4 5 5 4 6 6 7 7 7 8 7 6 5 5 5 6 6 7 7 7 8 8 8 8 7 7 7 8 8 9 9 7 7 7
3 4 4 3 3 2 2 2 3 2 3 4 3 2 4 5 6 6 7 8 7 6 6 5 5 5 5 6 6 6 7 7 7 7 8 8 7 7 7 7 6 7 7 7
2 4 2 2 6 5 3 3 4 4 4 3 1 1 2 3 4 5 6 6 7 6 5 3 2 2 3 4 5 6 6 6 6 7 7 7 7 7 6 6 6 7 7 7
3 3 4 6 5 7 5 4 5 5 4 5 5 2 1 1 2 5 6 7 7 6 5 3 1 1 1 3 4 4 5 5 5 6 6 6 6 6 5 4 5 5 6 6
4 3 3 2 4 6 6 5 6 4 1 5 5 2 4 2 1 2 4 4 4 4 3 2 1 1 1 2 3 3 4 4 4 4 5 6 6 5 4 4 4 4 4 6
3 3 5 8 7 6 4 4 5 5 4 6 5 1 4 4 2 3 4 4 5 5 4 4 3 1 1 0 1 1 1 2 3 3 4 5 5 4 4 3 4 4 6 6
3 3 7 4 6 8 5 8 6 7 7 6 5 6 5 4 2 3 4 5 5 5 5 5 4 1 1 2 3 3 1 2 3 3 4 4 5 5 5 5 6 6 6 5
4 3 8 5 9 9 9 4 7 7 6 5 5 4 4 2 1 3 4 4 5 5 6 6 4 1 1 3 4 2 1 2 3 3 4 5 5 6 6 6 6 5 5 5
9 8 6 7 8 7 6 7 6 6 6 5 4 3 2 2 1 3 3 4 4 4 6 6 5 2 2 4 3 1 2 3 3 4 4 4 5 5 5 5 4 4 4 4
3 6 4 6 4 6 6 7 7 7 6 5 4 3 3 2 0 2 3 3 4 4 6 6 6 4 3 4 2 3 4 4 4 4 4 4 4 3 4 4 4 4 4 4
4 4 2 4 6 7 6 7 7 6 6 6 6 4 3 2 1 2 2 2 3 4 4 5 5 5 5 4 3 4 4 4 4 3 4 4 3 3 3 2 2 2 2 3
9 9 9 10 9 8 9 9 9 8 6 5 5 4 4 3 1 1 1 2 3 4 4 4 4 4 5 5 3 4 4 3 3 3 2 2 2 2 3 2 4 4 3 3
7 7 8 6 10 11 11 10 9 8 8 6 5 5 4 2 1 0 0 1 2 3 3 3 3 5 6 6 3 3 4 4 3 3 3 3 2 1 0 2 4 4 5 5
6 7 4 5 9 11 10 10 9 7 7 7 6 4 4 3 2 1 1 2 2 3 3 2 3 5 6 5 2 3 4 4 4 3 3 3 2 2 1 0 1 2 4 5
6 6 6 6 8 10 8 8 8 7 7 6 6 5 5 4 3 3 3 3 2 2 3 2 3 5 6 5 2 3 3 3 3 2 2 3 2 2 2 2 1 1 2 3
6 4 6 7 9 10 9 9 8 8 8 7 6 6 6 6 5 3 3 2 1 2 3 2 3 4 5 4 2 1 2 4 4 3 3 3 3 3 2 2 1 1 1 1
9 8 8 8 10 10 10 9 9 9 8 8 8 7 6 5 3 2 3 3 1 2 2 1 3 4 4 3 2 1 2 2 3 3 3 3 3 3 3 3 2 2 1 2
12 12 9 11 11 10 9 9 9 9 8 8 8 7 7 7 5 5 5 3 0 1 1 2 3 3 3 4 3 2 1 2 2 2 3 3 4 4 3 3 4 3 2 1
8 9 9 9 10 10 10 9 8 8 8 7 8 9 8 7 6 5 4 3 1 2 3 3 3 2 1 3 3 2 2 2 2 3 3 4 4 3 3 4 4 4 3 2
7 8 9 9 9 9 9 9 8 8 7 8 9 8 7 7 6 5 4 4 4 5 5 3 1 0 1 3 4 1 2 2 2 3 3 4 4 4 4 4 4 4 4 3
5 6 8 8 8 8 9 10 9 9 8 9 10 10 9 7 6 6 4 4 5 5 4 3 2 2 2 3 4 2 2 2 2 4 4 5 4 4 4 5 5 4 4 4
2 2 4 6 7 7 7 8 9 10 9 9 9 9 8 7 6 5 5 6 5 6 5 3 3 5 5 4 2 3 3 3 3 3 4 5 5 5 5 5 5 5 5 5
4 2 1 3 5 6 5 6 8 9 10 10 10 10 9 8 6 6 5 5 5 7 6 4 6 8 8 3 3 3 4 4 4 4 4 5 6 6 5 6 5 5 5 5
6 6 4 2 1 2 4 5 6 7 9 9 10 10 9 6 5 5 5 6 8 9 6 7 10 10 8 3 3 4 4 4 4 4 4 5 5 5 5 5 5 5 6 6
6 6 6 6 3 1 3 4 4 5 6 6 7 8 7 7 7 6 6 6 9 9 6 8 11 10 5 3 4 4 4 4 4 4 3 4 4 5 5 5 6 6 6 6
5 4 4 3 2 2 2 1 2 3 4 5 5 6 6 5 6 5 5 7 8 9 7 5 6 6 4 4 4 5 4 4 4 4 4 3 4 4 5 5 7 6 6 6
5 4 4 4 4 3 2 1 1 2 3 5 5 6 6 6 6 6 6 6 6 6 6 6 5 5 5 5 5 5 4 4 4 4 3 3 3 3 4 6 5 5 6 6
Wind_Direction
136 151 130 120 96 77 91 144 147 211 243 269 281 300 318 329 340 351 353 357 1 3 358 357 2 8 16 17 16 22 29 30 25 23 28 33 35 38 42 50 55 51 52 43
134 154 139 127 154 128 112 147 169 206 250 242 250 297 330 341 349 357 357 356 356 7 15 12 8 8 17 19 18 26 31 27 24 27 31 32 35 40 47 49 50 54 51 46
185 181 138 237 203 186 179 198 186 207 234 208 206 286 314 335 354 356 353 350 349 353 9 18 17 24 28 21 27 33 30 25 25 30 32 27 33 37 38 39 43 45 41 39
135 134 247 254 197 169 177 212 217 231 241 190 188 207 275 265 5 350 345 344 341 343 354 8 35 69 52 40 37 35 29 25 24 31 31 26 30 31 29 32 41 43 40 34
125 180 274 274 194 178 180 230 227 221 205 161 164 65 343 301 280 316 322 324 323 328 334 352 352 191 104 52 37 34 21 19 24 38 39 30 26 20 17 31 36 37 35 32
132 176 239 242 204 165 129 243 229 176 143 150 143 81 274 273 275 303 314 321 328 334 341 343 317 250 167 223 350 3 357 26 43 56 53 38 23 18 19 36 40 42 40 32
178 228 260 248 147 123 162 235 193 162 151 144 169 200 232 254 279 306 304 311 331 341 335 322 313 262 239 263 263 249 213 73 59 61 61 47 36 33 42 53 52 49 47 34
174 213 255 184 141 176 211 181 148 150 156 160 188 212 218 225 303 334 328 321 334 340 330 326 333 322 304 298 283 252 156 92 64 51 55 60 53 44 43 52 54 42 35 23
187 212 234 182 186 198 158 152 158 158 164 164 173 187 186 187 314 341 340 334 338 342 339 342 351 15 352 316 318 130 127 108 88 70 58 59 62 57 47 43 48 36 29 18
225 257 222 201 188 164 163 162 166 163 164 164 164 161 153 168 306 339 338 340 347 360 359 350 351 9 354 336 1 100 121 120 111 97 77 60 53 52 57 45 42 37 27 14
230 249 197 232 203 176 163 154 155 158 163 164 159 153 159 183 257 319 330 330 353 3 352 345 352 1 355 1 40 84 110 124 125 116 108 85 62 43 51 39 51 59 22 0
214 203 180 210 204 178 160 169 169 165 169 169 162 164 161 190 239 293 325 334 356 357 352 346 354 355 352 359 47 105 112 125 134 136 130 124 113 61 23 24 32 43 32 16
199 181 182 200 185 179 172 177 177 175 175 178 177 171 164 185 210 171 7 337 341 341 342 348 357 353 348 348 26 117 133 140 145 151 158 162 164 150 51 345 354 4 5 8
166 136 159 171 180 183 175 176 177 180 184 181 177 173 164 164 172 181 284 281 302 336 353 359 0 348 342 346 30 122 136 147 148 157 163 165 171 176 170 136 360 341 341 351
179 166 172 174 163 168 169 166 173 185 184 181 176 173 169 172 195 228 261 277 313 347 349 356 356 340 339 350 33 138 145 151 153 155 150 143 140 133 123 106 73 14 354 356
188 161 150 152 165 171 169 174 179 188 185 183 183 188 187 187 202 232 267 257 283 312 308 316 331 326 335 356 21 143 177 173 157 159 156 148 146 141 141 139 128 86 14 348
162 182 182 180 182 182 183 182 182 185 185 188 193 191 182 181 198 244 256 248 251 290 258 251 313 327 349 17 19 223 207 195 161 140 158 163 164 169 173 175 184 203 247 275
190 191 184 181 182 185 190 187 184 185 188 194 186 176 176 182 200 224 238 246 333 17 291 286 322 1 43 42 27 356 261 221 195 177 173 175 177 179 180 188 200 206 228 264
190 186 185 183 183 184 187 189 191 193 191 181 175 180 187 192 199 213 217 209 217 268 259 273 338 45 51 19 25 349 322 246 217 208 194 188 179 183 190 197 206 209 207 201
189 191 190 190 185 183 191 193 190 190 188 178 176 179 186 198 199 198 198 210 224 223 230 246 275 250 294 331 354 344 325 296 239 215 208 202 199 202 203 204 204 204 201 197
176 187 191 195 197 195 193 190 188 192 188 177 178 186 194 200 194 183 184 223 249 228 224 243 221 211 250 296 329 317 297 281 257 222 215 215 214 213 210 206 203 201 198 195
85 168 191 196 199 205 202 192 189 190 184 185 190 187 185 193 196 196 207 212 229 219 213 228 228 233 246 278 297 296 286 274 262 235 221 218 215 214 212 206 204 204 198 192
39 28 312 218 207 209 203 195 192 185 184 187 188 186 189 194 186 186 224 231 221 219 209 222 233 242 257 267 272 281 283 278 269 252 230 219 214 210 208 206 203 200 195 193
35 29 13 338 194 183 208 216 204 196 193 192 193 190 184 185 207 216 211 220 210 208 206 224 238 250 260 256 263 272 277 277 274 268 247 227 215 209 206 203 200 199 196 194
22 23 28 35 39 309 260 248 224 213 202 204 207 202 195 188 194 207 200 213 218 212 215 230 239 248 249 247 257 266 271 270 273 275 260 239 222 211 206 201 198 196 195 197
10 8 4 3 356 334 320 272 235 232 213 214 220 213 206 204 205 200 198 209 218 214 213 222 231 241 236 241 252 260 265 275 287 288 274 258 235 219 210 208 205 200 199 200
355 359 0 1 356 353 350 349 287 261 231 220 228 223 209 201 198 202 205 207 209 210 212 216 220 226 232 238 245 251 254 260 267 273 273 260 243 230 223 219 213 207 202 200